Tracking 27124 objects as of 31-Mar-2023
HD Live streaming from Space Station
objects crossing your sky now

SL-8 DEB

Track SL-8 DEB now!
10-day predictions


NORAD ID: 21943
Int'l Code: 1991-009CE
Perigee: 1,493.2 km
Apogee: 1,712.9 km
Inclination: 74.0 °
Period: 118.1 minutes
Semi major axis: 7974 km
RCS: 0.0463 m2 (small)
Launch date: February 12, 1991
Source: Commonwealth of Independent States (former USSR) (CIS)
Launch site: PLESETSK MISSILE AND SPACE COMPLEX (PKMTR)

Note: This is SATELLITE DEBRIS
Your satellite tracking list
Your tracking list is empty




NASA's NSSDC Master Catalog

Two Line Element Set (TLE):
1 21943U 91009CE  23089.51523868  .00000032  00000-0  44906-3 0  9999
2 21943  73.9549 168.1782 0137719 289.1558  81.5597 12.19223208426846
Source of the keplerian elements: AFSPC